Tehachapi, CA

6:11 PM PST on December 15, 2017 (GMT -0800)
Tehachapi Municipal

Weather History for KTSP - September, 2013

Change the Weather History Date:

Monday, September 30, 2013

  Actual Average Record
Temperature  
Mean Temperature 61 °F -  
Max Temperature 69 °F 76 °F 87 °F (2012)
Min Temperature 53 °F 48 °F 39 °F (2014)
Degree Days  
Heating Degree Days 4    
Growing Degree Days 11 (Base 50)    
Moisture  
Dew Point 38 °F    
Average Humidity 44    
Maximum Humidity 77    
Minimum Humidity 28    
Precipitation  
Precipitation 0.00 in - - ()
Sea Level Pressure  
Sea Level Pressure 30.11 in    
Wind  
Wind Speed 14 mph (WNW)    
Max Wind Speed 23 mph    
Max Gust Speed 29 mph    
Visibility 10 miles    
Events Rain    
Averages and records for this station are not official NWS values.
T = Trace of Precipitation, MM = Missing Value Source: NWS Daily Summary

Daily Weather History Graph

Daily Weather History Graph

Search for Another Location

Airport or City:

Trip Planner

Search our weather history database for the weather conditions in past years. The results will help you decide how hot, cold, wet, or windy it might be!

Date:

Astronomy

Sep. 30, 2013 Rise Set
Actual Time 6:48 AM PDT 6:38 PM PDT
Civil Twilight 6:22 AM PDT 7:03 PM PDT
Nautical Twilight 5:53 AM PDT 7:33 PM PDT
Astronomical Twilight 5:23 AM PDT 8:02 PM PDT
Moon 2:37 AM PDT (9/30) 4:04 PM PDT (9/30)
Length of Visible Light 12h 41m
Length of Day
11h 50m
Waning Crescent, 18% of the Moon is Illuminated
Sep 30
Waning Crescent
Oct 4
New
Oct 11
First Quarter
Oct 18
Full
Oct 26
Last Quarter

Hourly Weather History & Observations

Time (PDT) Temp. Dew Point Humidity Pressure Visibility Wind Dir Wind Speed Gust Speed Precip Events Conditions
12:15 AM 59.0 °F 26.6 °F 29% 30.16 in 10.0 mi WNW 12.7 mph - N/A   Clear
12:35 AM 57.2 °F 26.6 °F 31% 30.16 in 10.0 mi West 10.4 mph - N/A   Clear
12:55 AM 57.2 °F 26.6 °F 31% 30.16 in 10.0 mi WNW 11.5 mph - N/A   Clear
1:15 AM 59.0 °F 26.6 °F 29% 30.16 in 10.0 mi WNW 12.7 mph - N/A   Clear
1:35 AM 59.0 °F 26.6 °F 29% 30.16 in 10.0 mi West 12.7 mph - N/A   Clear
1:55 AM 59.0 °F 28.4 °F 31% 30.16 in 10.0 mi West 10.4 mph - N/A   Clear
2:15 AM 57.2 °F 28.4 °F 33% 30.15 in 10.0 mi WNW 13.8 mph - N/A   Clear
2:35 AM 57.2 °F 28.4 °F 33% 30.15 in 10.0 mi West 12.7 mph - N/A   Clear
2:55 AM 57.2 °F 28.4 °F 33% 30.14 in 10.0 mi West 16.1 mph - N/A   Clear
3:15 AM 57.2 °F 28.4 °F 33% 30.14 in 10.0 mi West 13.8 mph - N/A   Clear
3:35 AM 57.2 °F 28.4 °F 33% 30.14 in 10.0 mi WNW 15.0 mph - N/A   Clear
3:55 AM 57.2 °F 28.4 °F 33% 30.13 in 10.0 mi West 12.7 mph 17.3 mph N/A   Clear
4:15 AM 57.2 °F 28.4 °F 33% 30.13 in 10.0 mi West 12.7 mph - N/A   Clear
4:35 AM 57.2 °F 28.4 °F 33% 30.13 in 10.0 mi West 13.8 mph 23.0 mph N/A   Clear
4:55 AM 57.2 °F 28.4 °F 33% 30.13 in 10.0 mi WNW 11.5 mph - N/A   Clear
5:15 AM 57.2 °F 32.0 °F 38% 30.13 in 10.0 mi WNW 17.3 mph 21.9 mph N/A   Clear
5:35 AM 57.2 °F 32.0 °F 38% 30.13 in 10.0 mi WNW 15.0 mph - N/A   Clear
5:55 AM 55.4 °F 32.0 °F 41% 30.13 in 10.0 mi NW 10.4 mph - N/A   Clear
6:15 AM 55.4 °F 32.0 °F 41% 30.13 in 10.0 mi WNW 15.0 mph 20.7 mph N/A   Clear
6:35 AM 55.4 °F 32.0 °F 41% 30.14 in 10.0 mi West 13.8 mph 19.6 mph N/A   Clear
6:55 AM 53.6 °F 32.0 °F 44% 30.14 in 10.0 mi West 11.5 mph - N/A   Clear
7:15 AM 55.4 °F 35.6 °F 47% 30.14 in 10.0 mi WNW 10.4 mph - N/A   Clear
7:35 AM 55.4 °F 37.4 °F 51% 30.15 in 10.0 mi WNW 9.2 mph - N/A   Clear
7:55 AM 57.2 °F 39.2 °F 51% 30.15 in 10.0 mi NW 10.4 mph - N/A   Clear
8:15 AM 59.0 °F 39.2 °F 48% 30.15 in 10.0 mi NW 10.4 mph - N/A   Clear
8:35 AM 59.0 °F 39.2 °F 48% 30.15 in 9.0 mi NW 11.5 mph - N/A   Clear
8:55 AM 60.8 °F 39.2 °F 45% 30.15 in 9.0 mi NW 13.8 mph - N/A   Clear
9:15 AM 62.6 °F 39.2 °F 42% 30.15 in 10.0 mi WNW 13.8 mph - N/A   Clear
9:35 AM 64.4 °F 39.2 °F 40% 30.15 in 10.0 mi NW 13.8 mph - N/A   Clear
9:55 AM 64.4 °F 39.2 °F 40% 30.15 in 10.0 mi NW 13.8 mph - N/A   Clear
10:15 AM 64.4 °F 39.2 °F 40% 30.14 in 10.0 mi NW 15.0 mph 20.7 mph N/A   Clear
10:35 AM 66.2 °F 37.4 °F 35% 30.14 in 10.0 mi NW 16.1 mph 23.0 mph N/A   Clear
10:55 AM 66.2 °F 39.2 °F 37% 30.14 in 9.0 mi NW 18.4 mph 26.5 mph N/A   Clear
11:15 AM 66.2 °F 39.2 °F 37% 30.14 in 7.0 mi NW 19.6 mph 25.3 mph N/A   Clear
11:35 AM 66.2 °F 41.0 °F 40% 30.13 in 8.0 mi NW 19.6 mph 25.3 mph N/A   Clear
11:55 AM 66.2 °F 41.0 °F 40% 30.13 in 10.0 mi NW 17.3 mph 23.0 mph N/A   Clear
12:15 PM 66.2 °F 42.8 °F 43% 30.13 in 9.0 mi NW 19.6 mph 24.2 mph N/A   Clear
12:35 PM 68.0 °F 41.0 °F 37% 30.12 in 10.0 mi NW 20.7 mph 25.3 mph N/A   Clear
12:55 PM 68.0 °F 42.8 °F 40% 30.11 in 9.0 mi NW 20.7 mph 26.5 mph N/A   Clear
1:15 PM 68.0 °F 41.0 °F 37% 30.10 in 7.0 mi NW 23.0 mph 27.6 mph N/A   Clear
1:35 PM 69.8 °F 39.2 °F 33% 30.10 in 8.0 mi NW 19.6 mph 27.6 mph N/A   Clear
1:55 PM 69.8 °F 37.4 °F 31% 30.09 in 10.0 mi NW 19.6 mph 27.6 mph N/A   Clear
2:15 PM 69.8 °F 35.6 °F 28% 30.08 in 10.0 mi NW 20.7 mph 26.5 mph N/A   Clear
2:35 PM 69.8 °F 37.4 °F 31% 30.08 in 10.0 mi NW 20.7 mph 27.6 mph N/A   Clear
2:55 PM 69.8 °F 39.2 °F 33% 30.07 in 10.0 mi NW 20.7 mph 27.6 mph N/A   Clear
3:15 PM 69.8 °F 37.4 °F 31% 30.07 in 10.0 mi NW 20.7 mph 27.6 mph N/A   Clear
3:35 PM 68.0 °F 39.2 °F 35% 30.06 in 10.0 mi NW 20.7 mph 28.8 mph N/A   Clear
3:55 PM 68.0 °F 39.2 °F 35% 30.06 in 10.0 mi NW 20.7 mph 27.6 mph N/A   Clear
4:15 PM 68.0 °F 39.2 °F 35% 30.06 in 10.0 mi NW 20.7 mph 26.5 mph N/A   Clear
4:35 PM 68.0 °F 39.2 °F 35% 30.05 in 10.0 mi NW 20.7 mph 27.6 mph N/A Rain Light Rain
4:55 PM 68.0 °F 41.0 °F 37% 30.05 in 10.0 mi NW 17.3 mph 25.3 mph N/A   Clear
5:15 PM 66.2 °F 41.0 °F 40% 30.05 in 10.0 mi NW 18.4 mph 24.2 mph N/A   Clear
5:35 PM 66.2 °F 41.0 °F 40% 30.05 in 10.0 mi NW 19.6 mph 23.0 mph N/A   Clear
5:55 PM 64.4 °F 42.8 °F 45% 30.04 in 10.0 mi NW 17.3 mph 20.7 mph N/A   Clear
6:15 PM 62.6 °F 44.6 °F 52% 30.05 in 10.0 mi WNW 18.4 mph 24.2 mph N/A   Clear
6:35 PM 62.6 °F 44.6 °F 52% 30.04 in 10.0 mi NW 16.1 mph - N/A   Clear
6:55 PM 60.8 °F 44.6 °F 55% 30.04 in 10.0 mi NW 13.8 mph - N/A   Clear
7:15 PM 59.0 °F 46.4 °F 63% 30.05 in 10.0 mi WNW 15.0 mph - N/A   Clear
7:35 PM 59.0 °F 46.4 °F 63% 30.05 in 10.0 mi WNW 11.5 mph - N/A   Clear
7:55 PM 59.0 °F 46.4 °F 63% 30.06 in 10.0 mi WNW 11.5 mph - N/A   Clear
8:15 PM 57.2 °F 46.4 °F 67% 30.06 in 10.0 mi WNW 11.5 mph - N/A   Clear
8:35 PM 57.2 °F 46.4 °F 67% 30.07 in 10.0 mi WNW 10.4 mph - N/A   Clear
8:55 PM 57.2 °F 46.4 °F 67% 30.07 in 10.0 mi NW 8.1 mph - N/A   Clear
9:15 PM 55.4 °F 44.6 °F 67% 30.07 in 10.0 mi WNW 9.2 mph - N/A   Clear
9:35 PM 55.4 °F 44.6 °F 67% 30.07 in 10.0 mi West 6.9 mph - N/A   Clear
9:55 PM 55.4 °F 44.6 °F 67% 30.07 in 10.0 mi NW 6.9 mph - N/A   Clear
10:15 PM 53.6 °F 44.6 °F 72% 30.07 in 10.0 mi NW 8.1 mph - N/A   Clear
10:35 PM 53.6 °F 46.4 °F 77% 30.07 in 10.0 mi NW 11.5 mph - N/A   Clear
10:55 PM 55.4 °F 46.4 °F 72% 30.07 in 10.0 mi NW 12.7 mph - N/A   Clear
11:15 PM 53.6 °F 46.4 °F 77% 30.06 in 10.0 mi NW 11.5 mph - N/A   Clear
11:35 PM 55.4 °F 46.4 °F 72% 30.06 in 10.0 mi WNW 11.5 mph - N/A   Clear
11:55 PM 55.4 °F 46.4 °F 72% 30.06 in 10.0 mi NW 10.4 mph - N/A   Clear